Status Flugplatz

Der Flugplatz ist offen
PPR Regelung ! PJE !!!

123.15 MHz
RWY 05/23

flüger beizli - Öffnungszeiten
Freitag ab 16:00
Samstag +Sonntag ab 11:00
Bei schönem Wetter öffnen wir früher! Tel.: 079 234 07 74

Herzlich willkommen auf der Homepage des Flugplatz Biel-Kappelen

Wir freuen uns über Ihren Besuch auf unserem schönen Flugplatz im Berner Seeland. Ob zu Fuss, per Velo, Motorrad, Auto oder Flugzeug Sie sind uns jederzeit herzlich willkommen. 


 

 

Wetter Kappelen

 


 

[source: ADDS]
METAR
LSZG 200550Z AUTO 05002KT CAVOK M00/M02 Q1013 =
TAF
TAF LSZG 200525Z 2006/2015 04008KT 9999 SCT040 PROB40 TEMPO 2006/2010 4000 -SN =
SR / SS: 06:27 / 17:03 UTC ( 2018-02-20)

 


 

Besucherzähler

HeuteHeute16
Seit BeginnSeit Beginn107170
Guests 24

Flugplatz Biel-Kappelen LSZP - 123.15MHz - 032 384 46 84

Email: Diese E-Mail-Adresse ist vor Spambots geschützt! Zur Anzeige muss JavaScript eingeschaltet sein!
www.lszp.ch
2017 © by mb

Zum Anfang